Location: Bay Ridge
(40.6340°N, 74.0146°W)
Time: 22:02:16
(UTC+00:00)

Cosmos 2082 Rocket - Pass Details

Date: 15 November 2019
Orbit: 833 x 854 km, 71.0° (Epoch: 05 December)

Event Time Altitude Azimuth Distance (km) Brightness Sun altitude
Exits shadow 08:15:46 27° 70° (ENE) 1,587 4.0 -39.1°
Drops below altitude 10° 08:19:00 10° 42° (NE) 2,489 5.1 -38.5°
Sets 08:21:39 0° 33° (NNE) 3,427 5.8 -38.0°
